Location: D�pe
(52.6057°N, 8.1808°E)
Time: 14:40:39
(UTC+00:00)

BREEZE-M R/B - Pass Details

Date: 29 October 2020
Orbit: 309 x 4522 km, 49.7° (Epoch: 28 November)

Event Time Altitude Azimuth Distance (km) Brightness Sun altitude
Rises 17:46:13 0° 271° (W) 2,456 8.0 -16.2°
Reaches altitude 10° 17:47:50 10° 267° (W) 1,781 6.8 -16.5°
Maximum altitude 17:51:36 59° 187° (S) 895 3.8 -17.1°
Enters shadow 17:55:52 23° 116° (ESE) 2,212 5.3 -17.7°
